Location: Newark
(54.0500°N, 12.8333°E)
Time: 20:52:30
(UTC+00:00)

Transit 4A - Pass Details

Date: 29 January 2020
Orbit: 872 x 973 km, 66.8° (Epoch: 22 February)

Event Time Altitude Azimuth Distance (km) Brightness Sun altitude
Rises 03:13:25 0° 152° (SSE) 3,532 11.1 -33.2°
Reaches altitude 10° 03:17:38 10° 124° (SE) 2,573 10.6 -32.6°
Maximum altitude 03:19:52 12° 102° (ESE) 2,406 10.7 -32.3°
Drops below altitude 10° 03:22:05 10° 79° (E) 2,558 11.1 -32.0°
Sets 03:26:13 0° 51° (NE) 3,488 11.8 -31.4°
